"Period start","avg(HW err(1)/warn(2) (#))","avg(Visibility (m))","avg(Weather code (#))","avg(Precip intensity (mm/h))","min(HW err(1)/warn(2) (#))","max(HW err(1)/warn(2) (#))","std(HW err(1)/warn(2) (#))","med(HW err(1)/warn(2) (#))","min(Visibility (m))","max(Visibility (m))","std(Visibility (m))","med(Visibility (m))","min(Weather code (#))","max(Weather code (#))","std(Weather code (#))","med(Weather code (#))","min(Precip intensity (mm/h))","max(Precip intensity (mm/h))","std(Precip intensity (mm/h))","med(Precip intensity (mm/h))"
2016-04-26 00:00:00,2,14631,0,0.00,2,2,0,2,13720,16591,850,14432,0,0,0,0,0.00,0.00,0.00,0.00
2016-04-26 00:10:00,2,14068,0,0.00,2,2,0,2,12345,16196,1324,14058,0,0,0,0,0.00,0.00,0.00,0.00
2016-04-26 00:20:00,2,13976,0,0.00,2,2,0,2,12335,15909,1044,13907,0,0,0,0,0.00,0.00,0.00,0.00
2016-04-26 00:30:00,2,15245,0,0.00,2,2,0,2,12932,20853,2108,14987,0,0,0,0,0.00,0.00,0.00,0.00
2016-04-26 00:40:00,2,15006,0,0.00,2,2,0,2,11987,17640,1606,15004,0,0,0,0,0.00,0.00,0.00,0.00
2016-04-26 00:50:00,2,15326,0,0.00,2,2,0,2,13874,17254,856,15261,0,0,0,0,0.00,0.00,0.00,0.00
2016-04-26 01:00:00,2,17398,0,0.00,2,2,0,2,13962,23951,3412,16094,0,0,0,0,0.00,0.00,0.00,0.00
2016-04-26 01:10:00,2,15730,0,0.00,2,2,0,2,13688,18379,1480,15260,0,0,0,0,0.00,0.00,0.00,0.00
2016-04-26 01:20:00,2,15615,0,0.00,2,2,0,2,11803,17749,1990,15929,0,0,0,0,0.00,0.00,0.00,0.00
2016-04-26 01:30:00,2,16053,0,0.00,2,2,0,2,12400,17836,1559,16596,0,0,0,0,0.00,0.00,0.00,0.00
2016-04-26 01:40:00,2,16509,0,0.00,2,2,0,2,13163,21176,2378,15995,0,0,0,0,0.00,0.00,0.00,0.00
2016-04-26 01:50:00,2,18336,0,0.00,2,2,0,2,14748,24259,3284,16978,0,0,0,0,0.00,0.00,0.00,0.00
2016-04-26 02:00:00,2,16611,0,0.00,2,2,0,2,12661,18970,1918,16841,0,0,0,0,0.00,0.00,0.00,0.00
2016-04-26 02:10:00,2,19465,0,0.00,2,2,0,2,14863,23090,2422,19602,0,0,0,0,0.00,0.00,0.00,0.00
2016-04-26 02:20:00,2,16950,0,0.00,2,2,0,2,12269,25863,3826,16190,0,0,0,0,0.00,0.00,0.00,0.00
2016-04-26 02:30:00,2,15992,0,0.00,2,2,0,2,12163,18279,1822,16004,0,0,0,0,0.00,0.00,0.00,0.00
2016-04-26 02:40:00,2,17942,0,0.00,2,2,0,2,16312,19730,1064,17769,0,0,0,0,0.00,0.00,0.00,0.00
2016-04-26 02:50:00,2,17946,0,0.00,2,2,0,2,14186,24333,3615,16514,0,0,0,0,0.00,0.00,0.00,0.00
2016-04-26 03:00:00,2,18833,0,0.00,2,2,0,2,16630,23950,2052,18552,0,0,0,0,0.00,0.00,0.00,0.00
2016-04-26 03:10:00,2,18608,0,0.00,2,2,0,2,13205,23622,3273,18096,0,0,0,0,0.00,0.00,0.00,0.00
2016-04-26 03:20:00,2,20279,0,0.00,2,2,0,2,16500,26180,3030,19293,0,0,0,0,0.00,0.00,0.00,0.00
2016-04-26 03:30:00,2,21431,0,0.00,2,2,0,2,17487,28313,2923,21088,0,0,0,0,0.00,0.00,0.00,0.00
2016-04-26 03:40:00,2,25174,0,0.00,2,2,0,2,15616,32906,5568,25320,0,0,0,0,0.00,0.00,0.00,0.00
2016-04-26 03:50:00,2,25289,0,0.00,2,2,0,2,16763,33817,5654,24889,0,0,0,0,0.00,0.00,0.00,0.00
2016-04-26 04:00:00,2,22317,0,0.00,2,2,0,2,17306,29402,3450,22384,0,0,0,0,0.00,0.00,0.00,0.00
2016-04-26 04:10:00,2,24174,0,0.00,2,2,0,2,19260,34655,4274,24826,0,0,0,0,0.00,0.00,0.00,0.00
2016-04-26 04:20:00,2,23632,0,0.00,2,2,0,2,19044,28111,2724,23934,0,0,0,0,0.00,0.00,0.00,0.00
2016-04-26 04:30:00,2,22865,0,0.00,2,2,0,2,18418,29863,3409,21884,0,0,0,0,0.00,0.00,0.00,0.00
2016-04-26 04:40:00,2,26587,0,0.00,2,2,0,2,20807,32354,3979,25820,0,0,0,0,0.00,0.00,0.00,0.00
2016-04-26 04:50:00,2,20923,0,0.00,2,2,0,2,17324,24743,2315,21108,0,0,0,0,0.00,0.00,0.00,0.00
2016-04-26 05:00:00,2,27911,0,0.00,2,2,0,2,23570,32181,2720,27930,0,0,0,0,0.00,0.00,0.00,0.00
2016-04-26 05:10:00,2,23489,0,0.00,2,2,0,2,17305,34816,5442,22284,0,0,0,0,0.00,0.00,0.00,0.00
2016-04-26 05:20:00,2,31813,0,0.00,2,2,0,2,24727,43254,5003,30698,0,0,0,0,0.00,0.00,0.00,0.00
2016-04-26 05:30:00,2,29033,0,0.00,2,2,0,2,24702,39411,4267,26983,0,0,0,0,0.00,0.00,0.00,0.00
2016-04-26 05:40:00,2,27063,0,0.00,2,2,0,2,20826,35706,4246,27486,0,0,0,0,0.00,0.00,0.00,0.00
2016-04-26 05:50:00,2,33946,0,0.00,2,2,0,2,29717,38009,2517,33985,0,0,0,0,0.00,0.00,0.00,0.00
2016-04-26 06:00:00,2,32061,0,0.00,2,2,0,2,28158,35384,2452,32230,0,0,0,0,0.00,0.00,0.00,0.00
2016-04-26 06:10:00,2,27991,0,0.00,2,2,0,2,21867,32018,2874,28376,0,0,0,0,0.00,0.00,0.00,0.00
2016-04-26 06:20:00,2,33144,0,0.00,2,2,0,2,27763,41177,4373,32850,0,0,0,0,0.00,0.00,0.00,0.00
2016-04-26 06:30:00,2,34011,0,0.00,2,2,0,2,26829,39139,3845,34574,0,0,0,0,0.00,0.00,0.00,0.00
2016-04-26 06:40:00,2,31964,0,0.00,2,2,0,2,23606,39673,5467,32714,0,0,0,0,0.00,0.00,0.00,0.00
2016-04-26 06:50:00,2,31520,0,0.00,2,2,0,2,27300,36762,2831,30977,0,0,0,0,0.00,0.00,0.00,0.00
2016-04-26 07:00:00,2,31424,0,0.00,2,2,0,2,22424,40265,5666,30347,0,0,0,0,0.00,0.00,0.00,0.00
2016-04-26 07:10:00,2,35119,0,0.00,2,2,0,2,31619,43557,4582,32462,0,0,0,0,0.00,0.00,0.00,0.00
2016-04-26 07:20:00,2,44228,0,0.00,2,2,0,2,41088,47099,2062,44066,0,0,0,0,0.00,0.00,0.00,0.00
2016-04-26 07:30:00,2,34795,0,0.00,2,2,0,2,27671,42833,3997,34676,0,0,0,0,0.00,0.00,0.00,0.00
2016-04-26 07:40:00,2,39450,0,0.00,2,2,0,2,33204,44839,3635,39326,0,0,0,0,0.00,0.00,0.00,0.00
2016-04-26 07:50:00,2,34264,0,0.00,2,2,0,2,29449,39100,2994,34958,0,0,0,0,0.00,0.00,0.00,0.00
2016-04-26 08:00:00,2,38354,0,0.00,2,2,0,2,23513,48580,7326,38726,0,0,0,0,0.00,0.00,0.00,0.00
2016-04-26 08:10:00,2,32307,0,0.00,2,2,0,2,23978,42485,5881,31928,0,0,0,0,0.00,0.00,0.00,0.00
2016-04-26 08:20:00,2,32320,0,0.00,2,2,0,2,25486,41464,5319,32328,0,0,0,0,0.00,0.00,0.00,0.00
2016-04-26 08:30:00,2,23383,0,0.00,2,2,0,2,16954,30540,4377,22158,0,0,0,0,0.00,0.00,0.00,0.00
2016-04-26 08:40:00,2,22090,0,0.00,2,2,0,2,16934,30633,4114,21324,0,0,0,0,0.00,0.00,0.00,0.00
2016-04-26 08:50:00,2,16083,0,0.00,2,2,0,2,12787,19319,1943,15990,0,0,0,0,0.00,0.00,0.00,0.00
2016-04-26 09:00:00,2,9510,0,0.00,2,2,0,2,6698,13964,2343,9188,0,0,0,0,0.00,0.00,0.00,0.00
2016-04-26 09:10:00,2,12910,0,0.00,2,2,0,2,10368,15501,1692,13045,0,0,0,0,0.00,0.00,0.00,0.00
2016-04-26 09:20:00,2,14558,0,0.00,2,2,0,2,13673,15365,486,14440,0,0,0,0,0.00,0.00,0.00,0.00
2016-04-26 09:30:00,2,16052,0,0.00,2,2,0,2,14038,19400,1715,15370,0,0,0,0,0.00,0.00,0.00,0.00
2016-04-26 09:40:00,2,13639,0,0.00,2,2,0,2,12470,15347,814,13452,0,0,0,0,0.00,0.00,0.00,0.00
2016-04-26 09:50:00,2,13289,0,0.00,2,2,0,2,11483,15436,1016,13016,0,0,0,0,0.00,0.00,0.00,0.00
2016-04-26 10:00:00,2,12872,0,0.00,2,2,0,2,12118,14249,633,12759,0,0,0,0,0.00,0.00,0.00,0.00
2016-04-26 10:10:00,2,12686,0,0.00,2,2,0,2,9891,16518,2387,12224,0,0,0,0,0.00,0.00,0.00,0.00
2016-04-26 10:20:00,2,25456,0,0.00,2,2,0,2,9572,48218,12870,20884,0,0,0,0,0.00,0.00,0.00,0.00
2016-04-26 10:30:00,2,33692,0,0.00,2,2,0,2,8650,49178,14024,40712,0,0,0,0,0.00,0.00,0.00,0.00
2016-04-26 10:40:00,2,8879,57,0.06,2,2,0,2,4575,14422,2941,8560,0,77,25,71,0.00,0.15,0.04,0.05
2016-04-26 10:50:00,2,8326,77,0.05,2,2,0,2,5127,10570,1626,8803,77,77,0,77,0.00,0.10,0.02,0.05
2016-04-26 11:00:00,2,10938,77,0.02,2,2,0,2,5182,14511,2839,11596,77,77,0,77,0.00,0.05,0.02,0.00
2016-04-26 11:10:00,2,9791,77,0.01,2,2,0,2,5343,12979,2451,9808,77,77,0,77,0.00,0.05,0.02,0.00
2016-04-26 11:20:00,2,7140,77,0.03,2,2,0,2,5169,10899,1695,6639,77,77,0,77,0.00,0.05,0.03,0.03
2016-04-26 11:30:00,2,8420,77,0.02,2,2,0,2,4144,16664,3263,8057,77,77,0,77,0.00,0.10,0.03,0.00
2016-04-26 11:40:00,2,24244,77,0.00,2,2,0,2,9982,33215,7294,27080,77,77,0,77,0.00,0.00,0.00,0.00
2016-04-26 11:50:00,2,36584,36,0.00,2,2,0,2,25798,48505,8055,35235,0,77,27,41,0.00,0.00,0.00,0.00
2016-04-26 12:00:00,2,44978,0,0.00,2,2,0,2,37221,50000,4706,46503,0,0,0,0,0.00,0.00,0.00,0.00
2016-04-26 12:10:00,2,46545,0,0.00,2,2,0,2,40176,50000,3708,48110,0,0,0,0,0.00,0.00,0.00,0.00
2016-04-26 12:20:00,2,49540,0,0.00,2,2,0,2,45395,50000,1382,50000,0,0,0,0,0.00,0.00,0.00,0.00
2016-04-26 12:30:00,2,34052,12,0.00,2,2,0,2,25473,43993,5855,35632,0,41,19,0,0.00,0.00,0.00,0.00
2016-04-26 12:40:00,2,29457,0,0.00,2,2,0,2,24019,34996,3985,28244,0,0,0,0,0.00,0.00,0.00,0.00
2016-04-26 12:50:00,2,20049,43,0.04,2,2,0,2,6265,44327,12940,14178,0,77,32,41,0.00,0.15,0.05,0.03
2016-04-26 13:00:00,2,48502,15,0.00,2,2,0,2,42807,50000,2462,50000,0,77,31,0,0.00,0.00,0.00,0.00
2016-04-26 13:10:00,2,47758,0,0.00,2,2,0,2,38995,50000,3501,49460,0,0,0,0,0.00,0.00,0.00,0.00
2016-04-26 13:20:00,2,49533,0,0.00,2,2,0,2,45354,50000,1393,50000,0,0,0,0,0.00,0.00,0.00,0.00
2016-04-26 13:30:00,2,49778,0,0.00,2,2,0,2,47835,50000,648,50000,0,0,0,0,0.00,0.00,0.00,0.00
2016-04-26 13:40:00,2,41374,0,0.00,2,2,0,2,25077,50000,7982,40740,0,0,0,0,0.00,0.00,0.00,0.00
2016-04-26 13:50:00,2,37437,0,0.00,2,2,0,2,13315,49756,12374,42239,0,0,0,0,0.00,0.00,0.00,0.00
2016-04-26 14:00:00,2,20827,54,0.00,2,2,0,2,9820,31776,6385,19444,0,77,24,56,0.00,0.00,0.00,0.00
2016-04-26 14:10:00,2,14440,75,0.01,2,2,0,2,9103,20668,3506,12962,71,77,3,77,0.00,0.05,0.02,0.00
2016-04-26 14:20:00,2,11712,75,0.01,2,2,0,2,7707,16171,2864,11122,71,77,3,77,0.00,0.05,0.02,0.00
2016-04-26 14:30:00,2,30749,75,0.00,2,2,0,2,19057,46353,7964,30570,71,77,3,77,0.00,0.00,0.00,0.00
2016-04-26 14:40:00,2,48578,0,0.00,2,2,0,2,42334,50000,2392,50000,0,0,0,0,0.00,0.00,0.00,0.00
2016-04-26 14:50:00,2,50000,0,0.00,2,2,0,2,50000,50000,0,50000,0,0,0,0,0.00,0.00,0.00,0.00
2016-04-26 15:00:00,2,50000,0,0.00,2,2,0,2,50000,50000,0,50000,0,0,0,0,0.00,0.00,0.00,0.00
2016-04-26 15:10:00,2,48630,0,0.00,2,2,0,2,44742,50000,1860,49896,0,0,0,0,0.00,0.00,0.00,0.00
2016-04-26 15:20:00,2,47032,0,0.00,2,2,0,2,39157,50000,3650,48688,0,0,0,0,0.00,0.00,0.00,0.00
2016-04-26 15:30:00,2,50000,0,0.00,2,2,0,2,50000,50000,0,50000,0,0,0,0,0.00,0.00,0.00,0.00
2016-04-26 15:40:00,2,50000,0,0.00,2,2,0,2,50000,50000,0,50000,0,0,0,0,0.00,0.00,0.00,0.00
2016-04-26 15:50:00,2,49782,0,0.00,2,2,0,2,47824,50000,653,50000,0,0,0,0,0.00,0.00,0.00,0.00
2016-04-26 16:00:00,2,50000,0,0.00,2,2,0,2,50000,50000,0,50000,0,0,0,0,0.00,0.00,0.00,0.00
2016-04-26 16:10:00,2,49791,0,0.00,2,2,0,2,47913,50000,626,50000,0,0,0,0,0.00,0.00,0.00,0.00
2016-04-26 16:20:00,2,46514,0,0.00,2,2,0,2,39497,50000,3784,48475,0,0,0,0,0.00,0.00,0.00,0.00
2016-04-26 16:30:00,2,49913,0,0.00,2,2,0,2,49128,50000,262,50000,0,0,0,0,0.00,0.00,0.00,0.00
2016-04-26 16:40:00,2,50000,0,0.00,2,2,0,2,50000,50000,0,50000,0,0,0,0,0.00,0.00,0.00,0.00
2016-04-26 16:50:00,2,50000,0,0.00,2,2,0,2,50000,50000,0,50000,0,0,0,0,0.00,0.00,0.00,0.00
2016-04-26 17:00:00,2,50000,0,0.00,2,2,0,2,50000,50000,0,50000,0,0,0,0,0.00,0.00,0.00,0.00
2016-04-26 17:10:00,2,49768,0,0.00,2,2,0,2,47749,50000,673,50000,0,0,0,0,0.00,0.00,0.00,0.00
2016-04-26 17:20:00,2,46293,0,0.00,2,2,0,2,35475,50000,4737,48966,0,0,0,0,0.00,0.00,0.00,0.00
2016-04-26 17:30:00,2,49487,0,0.00,2,2,0,2,45702,50000,1286,50000,0,0,0,0,0.00,0.00,0.00,0.00
2016-04-26 17:40:00,2,50000,0,0.00,2,2,0,2,50000,50000,0,50000,0,0,0,0,0.00,0.00,0.00,0.00
2016-04-26 17:50:00,2,49866,0,0.00,2,2,0,2,48661,50000,402,50000,0,0,0,0,0.00,0.00,0.00,0.00
2016-04-26 18:00:00,2,46370,0,0.00,2,2,0,2,35497,50000,4383,47870,0,0,0,0,0.00,0.00,0.00,0.00
2016-04-26 18:10:00,2,34903,0,0.00,2,2,0,2,27534,43343,5521,34420,0,0,0,0,0.00,0.00,0.00,0.00
2016-04-26 18:20:00,2,43701,0,0.00,2,2,0,2,31695,50000,6770,47484,0,0,0,0,0.00,0.00,0.00,0.00
2016-04-26 18:30:00,2,50000,0,0.00,2,2,0,2,50000,50000,0,50000,0,0,0,0,0.00,0.00,0.00,0.00
2016-04-26 18:40:00,2,50000,0,0.00,2,2,0,2,50000,50000,0,50000,0,0,0,0,0.00,0.00,0.00,0.00
2016-04-26 18:50:00,2,49482,0,0.00,2,2,0,2,46495,50000,1114,50000,0,0,0,0,0.00,0.00,0.00,0.00
2016-04-26 19:00:00,2,48184,0,0.00,2,2,0,2,39113,50000,3318,50000,0,0,0,0,0.00,0.00,0.00,0.00
2016-04-26 19:10:00,2,49807,0,0.00,2,2,0,2,48073,50000,578,50000,0,0,0,0,0.00,0.00,0.00,0.00
2016-04-26 19:20:00,2,50000,0,0.00,2,2,0,2,50000,50000,0,50000,0,0,0,0,0.00,0.00,0.00,0.00
2016-04-26 19:30:00,2,50000,0,0.00,2,2,0,2,50000,50000,0,50000,0,0,0,0,0.00,0.00,0.00,0.00
2016-04-26 19:40:00,2,50000,0,0.00,2,2,0,2,50000,50000,0,50000,0,0,0,0,0.00,0.00,0.00,0.00
2016-04-26 19:50:00,2,50000,0,0.00,2,2,0,2,50000,50000,0,50000,0,0,0,0,0.00,0.00,0.00,0.00
2016-04-26 20:00:00,2,50000,0,0.00,2,2,0,2,50000,50000,0,50000,0,0,0,0,0.00,0.00,0.00,0.00
2016-04-26 20:10:00,2,50000,0,0.00,2,2,0,2,50000,50000,0,50000,0,0,0,0,0.00,0.00,0.00,0.00
2016-04-26 20:20:00,2,48719,0,0.00,2,2,0,2,42052,50000,2498,49918,0,0,0,0,0.00,0.00,0.00,0.00
2016-04-26 20:30:00,2,45968,0,0.00,2,2,0,2,34845,50000,5649,49749,0,0,0,0,0.00,0.00,0.00,0.00
2016-04-26 20:40:00,2,48481,0,0.00,2,2,0,2,44642,50000,2242,50000,0,0,0,0,0.00,0.00,0.00,0.00
2016-04-26 20:50:00,2,48880,0,0.00,2,2,0,2,42460,50000,2259,50000,0,0,0,0,0.00,0.00,0.00,0.00
2016-04-26 21:00:00,2,50000,0,0.00,2,2,0,2,50000,50000,0,50000,0,0,0,0,0.00,0.00,0.00,0.00
2016-04-26 21:10:00,2,50000,0,0.00,2,2,0,2,50000,50000,0,50000,0,0,0,0,0.00,0.00,0.00,0.00
2016-04-26 21:20:00,2,50000,0,0.00,2,2,0,2,50000,50000,0,50000,0,0,0,0,0.00,0.00,0.00,0.00
2016-04-26 21:30:00,2,50000,0,0.00,2,2,0,2,50000,50000,0,50000,0,0,0,0,0.00,0.00,0.00,0.00
2016-04-26 21:40:00,2,50000,0,0.00,2,2,0,2,50000,50000,0,50000,0,0,0,0,0.00,0.00,0.00,0.00
2016-04-26 21:50:00,2,49953,0,0.00,2,2,0,2,49533,50000,140,50000,0,0,0,0,0.00,0.00,0.00,0.00
2016-04-26 22:00:00,2,49538,0,0.00,2,2,0,2,46407,50000,1070,50000,0,0,0,0,0.00,0.00,0.00,0.00
2016-04-26 22:10:00,2,48404,0,0.00,2,2,0,2,43240,50000,2576,50000,0,0,0,0,0.00,0.00,0.00,0.00
2016-04-26 22:20:00,2,49558,0,0.00,2,2,0,2,45580,50000,1326,50000,0,0,0,0,0.00,0.00,0.00,0.00
2016-04-26 22:30:00,2,49713,0,0.00,2,2,0,2,48684,50000,487,50000,0,0,0,0,0.00,0.00,0.00,0.00
2016-04-26 22:40:00,2,46784,0,0.00,2,2,0,2,42235,50000,3191,47788,0,0,0,0,0.00,0.00,0.00,0.00
2016-04-26 22:50:00,2,49042,0,0.00,2,2,0,2,44644,50000,1597,50000,0,0,0,0,0.00,0.00,0.00,0.00
2016-04-26 23:00:00,2,48677,0,0.00,2,2,0,2,41040,50000,2846,50000,0,0,0,0,0.00,0.00,0.00,0.00
2016-04-26 23:10:00,2,38469,0,0.00,2,2,0,2,24169,44641,5628,39562,0,0,0,0,0.00,0.00,0.00,0.00
2016-04-26 23:20:00,2,48606,0,0.00,2,2,0,2,43126,50000,2108,49676,0,0,0,0,0.00,0.00,0.00,0.00
2016-04-26 23:30:00,2,49980,0,0.00,2,2,0,2,49805,50000,58,50000,0,0,0,0,0.00,0.00,0.00,0.00
2016-04-26 23:40:00,2,44357,0,0.00,2,2,0,2,25653,50000,7234,46940,0,0,0,0,0.00,0.00,0.00,0.00
2016-04-26 23:50:00,2,31260,0,0.00,2,2,0,2,13223,50000,14266,27466,0,0,0,0,0.00,0.00,0.00,0.00
